Jackson, MI

9:12 PM EST on February 25, 2018 (GMT -0500)
Jackson County-Reynolds

Weather History for KJXN - April, 2013

Change the Weather History Date:

Sunday, April 14, 2013

  Actual Average Record
Temperature  
Mean Temperature 41 °F 47 °F  
Max Temperature 51 °F 58 °F 79 °F (2006)
Min Temperature 30 °F 37 °F 20 °F (1950)
Degree Days  
Heating Degree Days 24 18  
Month to date heating degree days 345 284  
Since 1 July heating degree days 6078 6108  
Cooling Degree Days 0 0  
Month to date cooling degree days 0 0  
Year to date cooling degree days 0 0  
Moisture  
Dew Point 30 °F    
Average Humidity 67    
Maximum Humidity 82    
Minimum Humidity 52    
Precipitation  
Precipitation 0.01 in 0.09 in 0.76 in (1968)
Month to date precipitation 2.07 1.19  
Year to date precipitation 7.06 5.87  
Sea Level Pressure  
Sea Level Pressure 30.02 in    
Wind  
Wind Speed 9 mph (SE)    
Max Wind Speed 22 mph    
Max Gust Speed 28 mph    
Visibility 10 miles    
Events Snow    
T = Trace of Precipitation, MM = Missing Value Source: NWS Daily Summary

Daily Weather History Graph

Daily Weather History Graph

Search for Another Location

Airport or City:

Trip Planner

Search our weather history database for the weather conditions in past years. The results will help you decide how hot, cold, wet, or windy it might be!

Date:

Astronomy

Apr. 14, 2013 Rise Set
Actual Time 6:58 AM EDT 8:18 PM EDT
Civil Twilight 6:29 AM EDT 8:47 PM EDT
Nautical Twilight 5:54 AM EDT 9:22 PM EDT
Astronomical Twilight 5:17 AM EDT 9:59 PM EDT
Moon 9:31 AM EDT (4/14) No Moon Set
Length of Visible Light 14h 18m
Length of Day
13h 20m
Waxing Crescent, 17% of the Moon is Illuminated
Apr 14
Waxing Crescent
Apr 18
First Quarter
Apr 25
Full
May 2
Last Quarter
May 9
New

Hourly Weather History & Observations

Time (EDT) Temp. Windchill Dew Point Humidity Pressure Visibility Wind Dir Wind Speed Gust Speed Precip Events Conditions
12:56 AM 36.0 °F - 26.1 °F 67% 30.01 in 10.0 mi Calm Calm - N/A   Overcast
1:56 AM 36.0 °F 33.3 °F 26.1 °F 67% 30.02 in 10.0 mi WSW 3.5 mph - N/A   Overcast
2:56 AM 32.0 °F 28.7 °F 25.0 °F 75% 30.02 in 10.0 mi SW 3.5 mph - N/A   Clear
3:56 AM 32.0 °F 26.4 °F 26.1 °F 79% 30.04 in 10.0 mi SW 5.8 mph - N/A   Overcast
4:56 AM 32.0 °F 28.7 °F 26.1 °F 79% 30.04 in 10.0 mi WSW 3.5 mph - N/A   Overcast
5:56 AM 33.1 °F 30.0 °F 27.0 °F 78% 30.06 in 10.0 mi SW 3.5 mph - N/A   Overcast
6:56 AM 33.1 °F - 28.0 °F 82% 30.07 in 10.0 mi Calm Calm - N/A   Overcast
7:56 AM 35.1 °F 32.2 °F 28.0 °F 76% 30.08 in 10.0 mi North 3.5 mph - N/A   Overcast
8:56 AM 36.0 °F - 27.0 °F 70% 30.08 in 10.0 mi Calm Calm - N/A   Overcast
10:56 AM 37.0 °F 31.6 °F 27.0 °F 67% 30.09 in 10.0 mi ESE 6.9 mph - N/A   Overcast
11:56 AM 36.0 °F 31.1 °F 28.0 °F 73% 30.11 in 3.0 mi ESE 5.8 mph - 0.01 in Snow Light Snow
12:56 PM 37.9 °F 32.1 °F 30.0 °F 73% 30.09 in 8.0 mi East 8.1 mph - 0.00 in Snow Light Snow
1:56 PM 42.1 °F 36.1 °F 33.1 °F 70% 30.04 in 10.0 mi ESE 10.4 mph - 0.00 in   Mostly Cloudy
2:56 PM 48.0 °F - 33.1 °F 56% 30.03 in 10.0 mi East 10.4 mph - N/A   Partly Cloudy
3:56 PM 50.0 °F - 33.1 °F 52% 30.00 in 10.0 mi East 12.7 mph - N/A   Clear
4:56 PM 50.0 °F - 34.0 °F 54% 29.97 in 10.0 mi East 16.1 mph 20.7 mph N/A   Clear
5:56 PM 50.0 °F - 34.0 °F 54% 29.98 in 10.0 mi SE 17.3 mph - N/A   Clear
6:56 PM 48.0 °F - 33.1 °F 56% 29.98 in 10.0 mi ESE 17.3 mph 24.2 mph N/A   Clear
7:56 PM 46.0 °F 39.9 °F 32.0 °F 58% 29.96 in 10.0 mi ESE 13.8 mph - N/A   Clear
8:56 PM 43.0 °F 36.0 °F 32.0 °F 65% 29.96 in 10.0 mi ESE 13.8 mph 20.7 mph N/A   Clear
9:56 PM 43.0 °F 36.0 °F 30.9 °F 62% 29.95 in 10.0 mi ESE 13.8 mph 25.3 mph N/A   Clear
10:56 PM 42.1 °F 34.2 °F 30.9 °F 65% 29.93 in 10.0 mi ESE 16.1 mph 21.9 mph N/A   Clear
11:56 PM 41.0 °F 33.9 °F 32.0 °F 70% 29.91 in 10.0 mi ESE 12.7 mph - N/A   Clear